Location: Strathcona Wilderness Centre
(53.5370°N, 113.0082°W)
Time: 05:45:18
(UTC-06:00)

ISS - Visible Passes

Search period start: 19 July 2018 00:00
Search period end: 29 July 2018 00:00
Orbit: 402 x 408 km, 51.6° (Epoch: 19 July)

Date Brightness Start Highest point End Pass type
(mag) Time Alt. Az. Time Alt. Az. Time Alt. Az.
19 Jul -3.7 01:13:24 10° WSW 01:16:36 51° SSE 01:19:49 10° E visible
19 Jul -3.8 02:49:41 10° W 02:52:56 59° S 02:56:12 10° ESE visible
19 Jul -2.8 04:26:14 10° W 04:29:06 27° SSW 04:31:57 10° SSE visible
19 Jul -2.0 22:46:56 10° S 22:48:41 14° SE 22:50:27 10° ESE visible
20 Jul -3.5 00:21:28 10° SW 00:24:35 41° SSE 00:27:43 10° E visible
20 Jul -3.9 01:57:36 10° W 02:00:52 63° S 02:04:08 10° E visible
20 Jul -3.3 03:34:03 10° W 03:37:07 36° SSW 03:40:11 10° SE visible
20 Jul -3.1 23:29:37 10° SW 23:32:35 31° SSE 23:35:32 10° E visible
21 Jul -3.9 01:05:32 10° WSW 01:08:47 61° S 01:12:03 10° E visible
21 Jul -3.6 02:41:55 10° W 02:45:06 47° SSW 02:48:17 10° ESE visible
21 Jul -2.2 04:18:52 10° WSW 04:21:04 17° SW 04:23:17 10° S visible
21 Jul -2.6 22:37:58 10° SSW 22:40:36 23° SSE 22:43:15 10° E visible
22 Jul -3.8 00:13:29 10° WSW 00:16:42 55° S 00:19:56 10° E visible
22 Jul -3.8 01:49:47 10° W 01:53:02 56° S 01:56:16 10° ESE visible
22 Jul -2.7 03:26:26 10° W 03:29:09 24° SSW 03:31:52 10° SSE visible
22 Jul -3.6 23:21:28 10° WSW 23:24:38 45° SSE 23:27:47 10° E visible
23 Jul -3.9 00:57:41 10° W 01:00:56 62° S 01:03:23 16° ESE visible
23 Jul -2.5 02:34:09 10° W 02:35:55 24° WSW 02:35:55 24° WSW visible
23 Jul -3.2 22:29:34 10° SW 22:32:34 35° SSE 22:35:36 10° E visible
24 Jul -3.9 00:05:33 10° W 00:08:49 63° S 00:12:02 10° E visible
24 Jul -3.3 01:41:58 10° W 01:44:37 39° SW 01:44:37 39° SW visible
24 Jul -3.8 23:13:27 10° WSW 23:16:41 58° S 23:19:56 10° E visible
25 Jul -3.8 00:49:47 10° W 00:53:01 53° SSW 00:53:43 42° SE visible
25 Jul -3.8 23:57:38 10° W 00:00:52 60° S 00:02:57 20° ESE visible
26 Jul -2.0 01:34:09 10° W 01:35:34 20° WSW 01:35:34 20° WSW visible
26 Jul -3.8 23:05:28 10° W 23:08:44 63° S 23:11:59 10° E visible
27 Jul -3.3 00:41:54 10° W 00:44:53 39° SSW 00:44:53 39° SSW visible
27 Jul -3.6 23:49:41 10° W 23:52:52 49° SSW 23:54:15 28° SE visible
28 Jul -1.3 01:26:31 10° W 01:26:53 12° WSW 01:26:53 12° WSW visible
28 Jul -3.7 22:57:29 10° W 23:00:43 58° S 23:03:38 12° ESE visible
